ABR469 EDDV-LIMC

Flight info

Callsign ABR469
Flight time 1h 12m
Altitude 37000
Route EDDV/09R N0447F370 NORT1G NORTA P605 WERRA DCT LAMOP DCT SWALM DCT SOGMI DCT BOMBI DCT GIGET DCT ABUKA DCT BANUX DCT KRH DCT NATOR DCT TRA DCT RIPUS DCT GERSA DCT SOSON DCT DEGAD Z424 RIXUV RIXU3H LIMC/17R
Aircraft B737/M-V/N

Departure

Time 2026-05-01 09:22
Airport Hannover Airport (EDDV)

Arrival

Time 2026-05-01 10:35
Airport Milan Malpensa International Airport (LIMC)
Time Latitude Longitude Altitude Speed Heading
2026-05-01 08:57 52.45863 9.68713 200 ft 0 kts
2026-05-01 09:13 52.45858 9.68713 206 ft 2 kts
2026-05-01 09:13 52.45842 9.68711 193 ft 2 kts
2026-05-01 09:13 52.45825 9.68710 203 ft 2 kts
2026-05-01 09:13 52.45810 9.68711 200 ft 0 kts 348°
2026-05-01 09:14 52.45802 9.68713 201 ft 2 kts 357°
2026-05-01 09:14 52.45786 9.68707 200 ft 2 kts 62°
2026-05-01 09:14 52.45783 9.68684 204 ft 1 kts 92°
2026-05-01 09:15 52.45783 9.68679 203 ft 0 kts 94°
2026-05-01 09:17 52.45782 9.68693 196 ft 3 kts 94°
2026-05-01 09:17 52.45783 9.68750 197 ft 7 kts 90°
2026-05-01 09:17 52.45786 9.68966 190 ft 10 kts 54°
2026-05-01 09:18 52.45809 9.69045 195 ft 4 kts 91°
2026-05-01 09:18 52.45764 9.69118 190 ft 7 kts 141°
2026-05-01 09:19 52.45664 9.69146 190 ft 8 kts 182°
2026-05-01 09:19 52.45625 9.69088 193 ft 9 kts 262°
2026-05-01 09:19 52.45626 9.68986 197 ft 9 kts 273°
2026-05-01 09:20 52.45633 9.68735 195 ft 13 kts 272°
2026-05-01 09:20 52.45644 9.68387 198 ft 17 kts 273°
2026-05-01 09:21 52.45655 9.67968 190 ft 18 kts 273°
2026-05-01 09:21 52.45654 9.67791 193 ft 14 kts 256°
2026-05-01 09:21 52.45503 9.67756 185 ft 14 kts 126°
2026-05-01 09:22 52.45468 9.68770 184 ft 107 kts 93°
2026-05-01 09:22 52.45392 9.72072 944 ft 161 kts 92°
2026-05-01 09:23 52.45352 9.73971 1540 ft 173 kts 94°
2026-05-01 09:23 52.45221 9.77896 3342 ft 171 kts 97°
2026-05-01 09:24 52.45106 9.81328 4477 ft 195 kts 95°
2026-05-01 09:24 52.45068 9.83043 4897 ft 207 kts 94°
2026-05-01 09:24 52.44688 9.89147 6894 ft 217 kts 111°
2026-05-01 09:25 52.42364 9.92299 8549 ft 236 kts 163°
2026-05-01 09:25 52.39076 9.92584 10223 ft 257 kts 186°
2026-05-01 09:26 52.37215 9.91981 10428 ft 287 kts 188°
2026-05-01 09:26 52.33276 9.90670 10426 ft 290 kts 187°
2026-05-01 09:26 52.31286 9.90086 10432 ft 290 kts 186°
2026-05-01 09:27 52.27317 9.89012 10430 ft 288 kts 185°
2026-05-01 09:27 52.25340 9.88492 10428 ft 288 kts 185°
2026-05-01 09:27 52.23355 9.88031 10425 ft 288 kts 183°
2026-05-01 09:28 52.21366 9.87639 10416 ft 288 kts 183°
2026-05-01 09:28 52.19376 9.87267 10417 ft 288 kts 183°
2026-05-01 09:28 52.17384 9.86897 10426 ft 288 kts 182°
2026-05-01 09:28 52.15390 9.86519 10421 ft 288 kts 182°
2026-05-01 09:29 52.11421 9.85756 10426 ft 288 kts 183°
2026-05-01 09:29 52.09430 9.85369 10415 ft 288 kts 183°
2026-05-01 09:30 52.05422 9.84591 10509 ft 303 kts 183°
2026-05-01 09:30 52.03229 9.84177 10717 ft 331 kts 183°
2026-05-01 09:30 51.98406 9.83254 11829 ft 358 kts 184°
2026-05-01 09:31 51.95922 9.82766 12717 ft 361 kts 184°
2026-05-01 09:31 51.93412 9.82278 13554 ft 366 kts 184°
2026-05-01 09:31 51.89293 9.81482 14815 ft 375 kts 184°
2026-05-01 09:32 51.86187 9.80886 15783 ft 380 kts 184°
2026-05-01 09:32 51.80871 9.79869 17376 ft 390 kts 184°
2026-05-01 09:32 51.78161 9.79352 18157 ft 394 kts 184°
2026-05-01 09:33 51.75420 9.78829 18882 ft 400 kts 184°
2026-05-01 09:33 51.72644 9.78298 19558 ft 404 kts 185°
2026-05-01 09:33 51.67005 9.77223 20891 ft 413 kts 185°
2026-05-01 09:34 51.64136 9.76680 21529 ft 417 kts 185°
2026-05-01 09:34 51.61242 9.76129 22153 ft 421 kts 185°
2026-05-01 09:34 51.55355 9.74999 23359 ft 430 kts 185°
2026-05-01 09:35 51.52369 9.74427 23971 ft 434 kts 185°
2026-05-01 09:35 51.46369 9.73082 24945 ft 443 kts 192°
2026-05-01 09:35 51.43370 9.71590 25439 ft 447 kts 198°
2026-05-01 09:36 51.40272 9.69827 25978 ft 450 kts 199°
2026-05-01 09:36 51.37319 9.68116 26446 ft 453 kts 199°
2026-05-01 09:36 51.34340 9.66401 26873 ft 457 kts 199°
2026-05-01 09:36 51.31332 9.64694 27306 ft 460 kts 199°
2026-05-01 09:37 51.28301 9.62995 27744 ft 463 kts 198°
2026-05-01 09:37 51.22170 9.59599 28570 ft 469 kts 198°
2026-05-01 09:37 51.19076 9.57893 28966 ft 472 kts 198°
2026-05-01 09:38 51.12836 9.54457 29706 ft 478 kts 199°
2026-05-01 09:38 51.09680 9.52722 30072 ft 480 kts 199°
2026-05-01 09:38 51.06520 9.50985 30514 ft 481 kts 199°
2026-05-01 09:39 51.00219 9.47521 31468 ft 477 kts 200°
2026-05-01 09:39 50.97186 9.45410 31866 ft 477 kts 209°
2026-05-01 09:39 50.94343 9.42713 32279 ft 475 kts 212°
2026-05-01 09:40 50.91547 9.39923 32707 ft 474 kts 213°
2026-05-01 09:40 50.85972 9.34376 33523 ft 472 kts 213°
2026-05-01 09:40 50.83176 9.31649 33920 ft 472 kts 212°
2026-05-01 09:41 50.80378 9.28945 34321 ft 471 kts 212°
2026-05-01 09:41 50.74791 9.23572 34985 ft 470 kts 212°
2026-05-01 09:41 50.72052 9.20775 35291 ft 468 kts 218°
2026-05-01 09:42 50.69589 9.17443 35577 ft 466 kts 227°
2026-05-01 09:42 50.67349 9.13755 35906 ft 465 kts 228°
2026-05-01 09:42 50.62926 9.06345 36500 ft 464 kts 227°
2026-05-01 09:43 50.58461 8.99046 37062 ft 463 kts 227°
2026-05-01 09:43 50.56216 8.95426 37352 ft 462 kts 225°
2026-05-01 09:43 50.53720 8.92224 37371 ft 466 kts 212°
2026-05-01 09:44 50.47705 8.88589 37398 ft 467 kts 188°
2026-05-01 09:44 50.44489 8.87913 37413 ft 467 kts 187°
2026-05-01 09:45 50.38033 8.86706 37399 ft 467 kts 187°
2026-05-01 09:45 50.28359 8.84756 37391 ft 468 kts 188°
2026-05-01 09:46 50.21906 8.83396 37379 ft 468 kts 188°
2026-05-01 09:46 50.15457 8.82039 37383 ft 468 kts 188°
2026-05-01 09:47 50.09009 8.80690 37379 ft 468 kts 188°
2026-05-01 09:47 50.02558 8.79349 37375 ft 468 kts 187°
2026-05-01 09:48 49.96109 8.78023 37374 ft 467 kts 187°
2026-05-01 09:48 49.89715 8.76711 37375 ft 466 kts 187°
2026-05-01 09:49 49.83015 8.75337 37383 ft 467 kts 187°
2026-05-01 09:49 49.77389 8.74187 37376 ft 468 kts 187°
2026-05-01 09:50 49.70891 8.72862 37371 ft 468 kts 187°
2026-05-01 09:50 49.64442 8.71547 37370 ft 466 kts 187°
2026-05-01 09:51 49.58017 8.70238 37362 ft 466 kts 187°
2026-05-01 09:51 49.51583 8.68931 37372 ft 467 kts 187°
2026-05-01 09:52 49.45119 8.67727 37368 ft 468 kts 183°
2026-05-01 09:52 49.38605 8.67455 37373 ft 469 kts 180°
2026-05-01 09:53 49.32074 8.67345 37367 ft 469 kts 180°
2026-05-01 09:53 49.25545 8.67141 37359 ft 469 kts 181°
2026-05-01 09:54 49.19022 8.66896 37342 ft 468 kts 181°
2026-05-01 09:54 49.12534 8.66426 37328 ft 466 kts 188°
2026-05-01 09:55 49.06337 8.63590 37335 ft 468 kts 205°
2026-05-01 09:55 49.00470 8.59264 37326 ft 469 kts 204°
2026-05-01 09:56 48.97398 8.57594 37314 ft 469 kts 193°
2026-05-01 09:56 48.94226 8.56513 37334 ft 467 kts 191°
2026-05-01 09:56 48.87862 8.54579 37322 ft 465 kts 191°
2026-05-01 09:57 48.81516 8.52630 37326 ft 465 kts 191°
2026-05-01 09:57 48.75185 8.50616 37321 ft 465 kts 192°
2026-05-01 09:58 48.68844 8.48576 37324 ft 465 kts 192°
2026-05-01 09:58 48.62509 8.46540 37323 ft 466 kts 192°
2026-05-01 09:59 48.56173 8.44513 37325 ft 465 kts 191°
2026-05-01 09:59 48.49846 8.42495 37321 ft 465 kts 191°
2026-05-01 10:00 48.43516 8.40481 37324 ft 465 kts 191°
2026-05-01 10:00 48.37188 8.38474 37322 ft 465 kts 192°
2026-05-01 10:01 48.30856 8.36469 37314 ft 465 kts 192°
2026-05-01 10:01 48.24526 8.34470 37320 ft 465 kts 191°
2026-05-01 10:02 48.18175 8.32682 37460 ft 465 kts 182°
2026-05-01 10:02 48.11739 8.33166 37220 ft 468 kts 170°
2026-05-01 10:03 48.05354 8.34823 37314 ft 464 kts 169°
2026-05-01 10:03 47.99009 8.36459 37309 ft 462 kts 169°
2026-05-01 10:04 47.92676 8.38012 37318 ft 460 kts 170°
2026-05-01 10:04 47.86357 8.39532 37325 ft 460 kts 170°
2026-05-01 10:05 47.80038 8.41050 37322 ft 460 kts 170°
2026-05-01 10:05 47.73704 8.42572 37330 ft 462 kts 170°
2026-05-01 10:06 47.67349 8.44035 37337 ft 463 kts 172°
2026-05-01 10:06 47.61113 8.44986 37343 ft 465 kts 174°
2026-05-01 10:07 47.54616 8.45849 37348 ft 466 kts 174°
2026-05-01 10:07 47.48328 8.46736 37342 ft 467 kts 173°
2026-05-01 10:08 47.38616 8.48159 37357 ft 468 kts 173°
2026-05-01 10:09 47.32401 8.49068 37347 ft 468 kts 173°
2026-05-01 10:09 47.25926 8.50010 37347 ft 467 kts 173°
2026-05-01 10:10 47.19448 8.50950 37325 ft 468 kts 173°
2026-05-01 10:10 47.09678 8.52365 36556 ft 471 kts 173°
2026-05-01 10:11 47.06436 8.52833 36077 ft 465 kts 173°
2026-05-01 10:11 47.03233 8.53294 35591 ft 461 kts 173°
2026-05-01 10:11 47.00049 8.53753 35102 ft 460 kts 172°
2026-05-01 10:11 46.96856 8.54214 34633 ft 461 kts 172°
2026-05-01 10:12 46.93699 8.54670 34133 ft 462 kts 172°
2026-05-01 10:12 46.91540 8.54982 33765 ft 462 kts 172°
2026-05-01 10:12 46.84045 8.56061 32543 ft 464 kts 172°
2026-05-01 10:13 46.80873 8.56517 32026 ft 465 kts 172°
2026-05-01 10:13 46.77649 8.56979 31540 ft 466 kts 172°
2026-05-01 10:13 46.74975 8.57362 31111 ft 466 kts 172°
2026-05-01 10:14 46.68495 8.58288 30103 ft 469 kts 172°
2026-05-01 10:14 46.65241 8.58753 29536 ft 470 kts 172°
2026-05-01 10:14 46.61984 8.59217 28984 ft 471 kts 172°
2026-05-01 10:14 46.58719 8.59680 28467 ft 471 kts 172°
2026-05-01 10:15 46.55452 8.60139 27919 ft 472 kts 172°
2026-05-01 10:15 46.52178 8.60598 27418 ft 473 kts 172°
2026-05-01 10:15 46.48897 8.61054 26913 ft 476 kts 173°
2026-05-01 10:15 46.45564 8.60998 26409 ft 484 kts 185°
2026-05-01 10:16 46.42276 8.59983 25918 ft 483 kts 196°
2026-05-01 10:16 46.39193 8.58102 25441 ft 480 kts 209°
2026-05-01 10:16 46.33627 8.52898 24503 ft 474 kts 212°
2026-05-01 10:17 46.30834 8.50400 24030 ft 471 kts 207°
2026-05-01 10:17 46.24662 8.47824 22973 ft 459 kts 183°
2026-05-01 10:17 46.21500 8.47854 22430 ft 452 kts 172°
2026-05-01 10:18 46.15315 8.48961 21415 ft 444 kts 171°
2026-05-01 10:18 46.12255 8.49462 20919 ft 440 kts 169°
2026-05-01 10:18 46.09289 8.50392 20418 ft 431 kts 160°
2026-05-01 10:19 46.06514 8.51852 19934 ft 418 kts 156°
2026-05-01 10:19 46.03845 8.53350 19444 ft 405 kts 156°
2026-05-01 10:19 46.01249 8.54804 18991 ft 395 kts 156°
2026-05-01 10:20 45.96261 8.57531 18420 ft 368 kts 156°
2026-05-01 10:20 45.93919 8.58787 18387 ft 350 kts 156°
2026-05-01 10:20 45.91678 8.59987 18083 ft 341 kts 156°
2026-05-01 10:20 45.89517 8.61297 17676 ft 333 kts 146°
2026-05-01 10:21 45.87674 8.63244 17300 ft 325 kts 138°
2026-05-01 10:21 45.84238 8.67342 16540 ft 318 kts 137°
2026-05-01 10:21 45.82541 8.69347 16171 ft 314 kts 137°
2026-05-01 10:22 45.79736 8.72603 15555 ft 310 kts 138°
2026-05-01 10:22 45.79029 8.73417 15401 ft 309 kts 138°
2026-05-01 10:23 45.77876 8.74743 15156 ft 307 kts 139°
2026-05-01 10:23 45.74374 8.78201 14434 ft 306 kts 149°
2026-05-01 10:23 45.72485 8.79599 14071 ft 305 kts 150°
2026-05-01 10:24 45.68727 8.82361 13289 ft 302 kts 150°
2026-05-01 10:24 45.65356 8.84925 12581 ft 299 kts 150°
2026-05-01 10:25 45.61702 8.87665 11830 ft 296 kts 157°
2026-05-01 10:25 45.57723 8.88876 11014 ft 289 kts 163°
2026-05-01 10:26 45.56466 8.89358 10999 ft 277 kts 166°
2026-05-01 10:26 45.54577 8.89831 10998 ft 275 kts 169°
2026-05-01 10:26 45.50683 8.90724 10291 ft 290 kts 166°
2026-05-01 10:27 45.46784 8.91976 9393 ft 284 kts 166°
2026-05-01 10:27 45.43008 8.93241 8598 ft 274 kts 166°
2026-05-01 10:28 45.41163 8.93860 8201 ft 270 kts 165°
2026-05-01 10:28 45.37605 8.93331 7429 ft 261 kts 215°
2026-05-01 10:28 45.36447 8.91455 7174 ft 249 kts 246°
2026-05-01 10:29 45.36095 8.86895 6671 ft 227 kts 293°
2026-05-01 10:29 45.36989 8.85116 6392 ft 223 kts 320°
2026-05-01 10:30 45.39481 8.82243 5590 ft 231 kts 323°
2026-05-01 10:30 45.41995 8.79531 4709 ft 222 kts 335°
2026-05-01 10:31 45.44925 8.78367 4100 ft 219 kts 352°
2026-05-01 10:31 45.47802 8.77587 3528 ft 203 kts 352°
2026-05-01 10:32 45.50434 8.76857 3067 ft 190 kts 352°
2026-05-01 10:32 45.51709 8.76511 2777 ft 189 kts 351°
2026-05-01 10:32 45.54254 8.75796 2285 ft 192 kts 355°
2026-05-01 10:33 45.56822 8.75079 1761 ft 174 kts 351°
2026-05-01 10:33 45.59023 8.74460 1374 ft 144 kts 349°
2026-05-01 10:34 45.59994 8.74190 1080 ft 136 kts 351°
2026-05-01 10:34 45.60921 8.73925 906 ft 136 kts 350°
2026-05-01 10:34 45.61842 8.73673 743 ft 128 kts 351°
2026-05-01 10:35 45.63110 8.73326 734 ft 58 kts 349°
2026-05-01 10:35 45.63460 8.73227 736 ft 40 kts 348°
2026-05-01 10:35 45.63644 8.73141 738 ft 26 kts 330°
2026-05-01 10:35 45.63773 8.72999 736 ft 20 kts 305°
2026-05-01 10:36 45.63883 8.72774 735 ft 13 kts 304°
2026-05-01 10:36 45.63931 8.72669 735 ft 12 kts 303°
2026-05-01 10:36 45.63956 8.72556 735 ft 12 kts 261°
2026-05-01 10:37 45.63940 8.72439 735 ft 12 kts 259°
2026-05-01 10:37 45.63915 8.72199 736 ft 13 kts 266°
2026-05-01 10:37 45.63909 8.72065 737 ft 14 kts 266°
2026-05-01 10:38 45.63900 8.71921 737 ft 14 kts 260°
2026-05-01 10:38 45.63837 8.71826 736 ft 14 kts 195°
2026-05-01 10:38 45.63745 8.71838 734 ft 13 kts 170°
2026-05-01 10:38 45.63657 8.71862 734 ft 13 kts 166°
2026-05-01 10:39 45.63570 8.71888 734 ft 14 kts 170°
2026-05-01 10:39 45.63470 8.71915 734 ft 16 kts 169°
2026-05-01 10:39 45.63357 8.71946 736 ft 17 kts 169°
2026-05-01 10:39 45.63229 8.71982 734 ft 20 kts 169°
2026-05-01 10:40 45.63083 8.72023 734 ft 23 kts 170°
2026-05-01 10:40 45.62919 8.72067 736 ft 25 kts 168°
2026-05-01 10:40 45.62743 8.72116 736 ft 26 kts 169°
2026-05-01 10:40 45.62571 8.72164 736 ft 24 kts 169°
2026-05-01 10:41 45.62412 8.72208 736 ft 23 kts 169°
2026-05-01 10:41 45.62259 8.72250 736 ft 22 kts 169°
2026-05-01 10:41 45.61968 8.72330 736 ft 17 kts 169°
2026-05-01 10:42 45.61889 8.72351 737 ft 9 kts 175°
2026-05-01 10:42 45.61857 8.72284 736 ft 9 kts 261°
2026-05-01 10:42 45.61846 8.72196 736 ft 9 kts 260°
2026-05-01 10:42 45.61835 8.72110 736 ft 9 kts 257°
2026-05-01 10:43 45.61819 8.72028 735 ft 9 kts 260°
2026-05-01 10:43 45.61808 8.71945 736 ft 8 kts 258°
2026-05-01 10:43 45.61804 8.71918 734 ft 0 kts 258°